Dewpoint
33 31 34 28 21 22 18 22 37 39 42 48 49 49 49 50 48 47 64 66 68 69 69 69 69 70 70 70 70 69 69 69 68 68 68 67 66 64 65 65 65 64 63 62 62 62 62 63 64
34 33 31 25 21 18 28 32 39 42 43 46 47 50 52 54 60 62 63 67 68 68 69 68 70 70 70 70 70 69 69 69 69 68 67 66 65 64 64 64 64 62 61 61 62 63 63 64 64
35 33 21 20 20 15 27 30 34 39 41 43 45 47 48 54 60 61 65 67 68 68 69 69 70 70 70 70 70 70 70 70 69 67 66 65 64 64 63 62 61 60 60 60 60 60 62 63 63
29 26 18 15 15 15 27 32 36 41 44 45 46 45 47 52 58 64 67 69 68 69 69 69 70 70 70 70 69 69 69 69 67 66 66 64 64 62 62 61 60 59 59 59 59 59 59 60 61
36 22 15 14 16 31 33 34 35 35 46 45 45 44 48 59 66 67 68 68 67 68 70 70 70 70 70 69 69 68 68 68 67 67 65 64 63 62 61 60 59 59 59 58 58 57 57 57 58
21 18 14 13 27 29 27 34 35 45 46 45 45 46 47 58 65 66 68 68 68 67 69 70 70 70 70 69 68 67 66 66 66 66 65 63 63 62 61 59 59 58 57 57 57 56 56 56 56
19 17 14 24 31 29 21 25 32 41 45 46 45 44 45 54 62 65 67 68 69 69 69 69 69 68 67 67 66 66 66 65 65 65 64 62 61 61 60 59 58 58 56 56 55 55 55 55 55
20 18 13 22 30 20 17 18 24 36 41 46 46 43 43 45 56 61 65 66 66 66 66 66 66 65 65 65 65 65 64 63 63 63 62 61 60 59 60 59 58 58 56 56 56 56 55 55 54
20 16 12 12 20 19 12 19 17 26 36 38 40 45 44 45 49 54 57 59 61 62 63 63 62 62 63 64 64 64 63 62 62 62 62 62 61 59 59 60 57 59 57 57 58 58 57 55 55
20 12 10 11 17 13 9 11 15 26 38 44 46 46 44 42 46 48 50 54 56 58 60 59 60 60 61 61 63 62 62 62 61 62 62 62 62 62 59 59 60 59 60 59 60 60 60 58 56
12 6 2 6 12 7 5 5 12 24 35 45 45 44 42 40 41 45 45 49 53 56 58 59 60 60 59 59 60 61 62 61 62 62 62 62 62 59 61 59 59 60 59 59 60 59 58 57 56
7 5 1 4 4 4 4 5 10 18 21 45 46 44 43 41 40 40 41 45 50 55 56 58 60 60 57 59 60 60 60 61 62 62 60 59 58 54 54 54 55 54 54 55 57 57 56 54 55
4 2 2 6 12 7 2 0 3 12 22 45 46 45 45 43 42 41 41 43 50 54 56 57 57 56 55 55 58 58 59 60 61 60 59 56 55 52 52 52 51 50 50 50 49 51 49 48 49
6 3 1 4 11 12 6 9 12 11 26 45 46 46 46 46 44 43 42 41 49 56 57 59 58 58 55 56 56 56 56 56 57 58 56 53 52 54 53 51 51 50 52 52 51 49 49 49 50
6 3 5 3 13 11 15 15 10 13 22 44 46 46 46 46 46 44 43 40 47 56 58 58 58 57 54 54 56 56 50 51 53 52 51 51 51 51 51 49 47 49 50 49 49 49 49 48 48
9 9 6 12 16 16 13 10 15 12 13 28 41 44 44 45 44 44 44 43 49 58 58 60 54 56 53 53 53 50 49 49 49 51 48 49 49 48 46 43 43 46 46 46 44 46 45 44 45
13 7 12 13 17 17 15 15 16 14 11 12 19 31 35 40 44 45 43 44 58 59 59 57 58 57 54 52 51 49 48 47 45 44 43 46 44 43 42 41 41 44 44 43 44 42 44 41 41
8 12 13 13 15 19 16 16 18 20 29 35 39 42 44 43 44 46 49 51 54 58 57 55 57 56 51 47 46 45 44 44 41 40 42 43 42 42 41 41 43 44 43 40 40 39 39 41 42
14 16 16 17 16 14 20 23 26 36 39 39 41 44 43 42 43 45 46 46 47 47 49 48 50 48 43 45 43 42 39 40 40 42 43 43 44 43 42 43 42 43 41 40 39 40 40 37 39
20 18 18 18 19 14 23 25 30 35 37 38 40 42 42 42 41 42 43 43 43 42 43 43 42 43 44 44 44 43 41 41 43 44 42 43 41 40 39 38 39 41 39 38 39 41 39 40 40
26 21 21 19 20 19 24 24 29 31 33 34 36 40 42 42 41 41 41 40 39 38 38 38 39 40 40 40 39 40 41 42 43 40 41 38 37 38 37 37 38 39 40 38 38 40 40 39 41
24 27 24 21 17 8 18 20 25 30 32 35 38 40 41 42 42 42 41 40 40 39 38 37 37 37 38 38 38 39 41 40 42 42 38 34 36 36 36 37 38 40 39 38 40 41 40 39 38
25 26 24 23 21 22 20 21 25 29 30 32 36 39 40 41 41 41 41 41 40 40 39 38 38 38 37 37 38 40 39 38 41 37 33 32 35 35 36 38 38 37 38 38 39 40 39 40 39
25 27 29 28 26 20 25 24 26 28 29 32 35 37 38 39 40 41 42 41 40 40 38 37 36 36 38 37 37 39 37 38 35 32 31 31 34 34 36 36 36 36 37 37 37 36 37 37 36
27 29 23 22 22 20 28 27 29 31 32 34 35 36 37 39 40 41 40 39 39 39 39 39 39 38 38 39 38 38 37 34 32 32 33 31 32 35 37 37 36 36 37 36 36 35 35 36 35
26 26 22 21 18 19 25 25 27 32 35 36 36 36 37 37 40 40 40 39 39 41 41 40 37 36 37 36 36 37 36 36 36 36 34 35 37 37 37 36 35 34 34 35 35 34 34 34 33
27 22 25 25 28 21 25 26 28 29 30 31 31 33 36 37 37 38 39 39 40 39 39 38 36 34 34 35 37 37 38 38 38 39 37 36 36 36 35 35 33 33 33 33 34 33 33 33 32
21 25 24 22 16 15 23 25 25 29 28 29 32 34 36 37 37 37 38 38 38 37 37 38 39 36 35 37 38 38 38 38 39 37 35 33 33 34 32 31 30 30 30 32 33 32 32 33 33
26 25 26 25 23 16 19 21 29 31 31 32 34 35 36 37 37 37 36 36 35 33 33 35 36 38 37 37 37 37 36 36 36 35 33 32 33 33 31 30 28 25 25 26 27 28 31 33 28
26 27 26 18 25 28 25 23 30 30 32 34 35 35 36 37 37 37 36 34 32 32 30 27 30 31 31 35 37 38 37 35 34 33 32 32 31 30 28 27 25 22 22 23 23 26 26 23 21
Wind_Speed
4 0 4 3 1 0 5 4 5 22 10 15 17 15 14 12 2 10 12 17 21 17 15 16 19 19 19 20 19 18 18 17 16 16 17 16 14 13 13 13 15 16 15 15 15 14 13 12 10
2 3 4 2 2 6 1 5 22 21 13 14 20 20 21 11 9 16 12 14 20 18 15 15 19 19 19 19 19 18 18 18 17 16 16 14 13 12 13 14 13 14 13 13 13 13 14 13 12
1 1 3 3 4 8 3 5 26 20 13 7 7 10 7 13 17 8 17 20 19 17 15 17 20 19 19 19 18 17 17 16 17 15 14 12 12 12 12 13 13 11 10 10 10 10 9 10 9
2 2 4 2 10 14 11 10 22 26 21 16 16 12 7 7 6 15 22 19 21 16 16 20 20 19 18 19 18 17 17 16 15 14 12 11 12 12 12 11 10 8 7 7 8 7 7 8 8
2 3 3 3 7 3 10 10 13 16 13 18 21 8 8 7 27 26 20 20 22 18 16 17 19 19 19 18 17 16 15 15 14 13 11 11 12 10 10 8 6 5 5 5 7 7 8 9 9
0 3 2 4 1 13 7 9 15 22 28 23 25 18 8 16 24 21 21 19 20 19 17 16 19 19 19 17 16 16 16 14 13 12 11 11 10 9 7 6 4 2 1 4 5 6 7 8 9
5 4 5 5 9 9 8 6 9 17 13 7 14 13 9 19 19 21 20 17 17 16 17 15 15 16 18 17 17 16 15 15 13 12 11 10 9 8 7 5 4 3 1 2 3 5 7 9 9
3 1 1 4 17 8 9 9 13 15 10 16 18 9 20 20 23 22 19 19 19 17 16 16 15 15 15 15 17 16 14 13 12 10 10 8 6 6 7 6 4 4 3 3 4 4 4 6 8
3 0 5 4 4 13 7 21 6 10 15 4 1 14 26 24 23 23 20 15 16 14 17 16 16 15 14 13 14 13 13 12 11 8 8 8 6 7 7 7 7 5 5 7 7 7 6 5 7
8 3 4 10 8 11 6 16 11 8 16 12 17 17 20 26 25 25 22 22 19 17 17 18 17 17 16 11 14 13 11 10 9 7 7 7 8 6 7 8 12 9 8 10 10 10 10 8 7
2 4 4 5 18 14 11 11 4 19 10 21 29 23 23 25 23 24 21 24 23 21 18 17 18 17 17 13 14 12 9 7 7 8 7 7 6 6 10 9 9 9 8 9 9 10 10 10 9
4 7 6 8 5 10 16 11 8 7 8 26 33 32 24 25 24 24 22 21 21 23 21 20 20 18 13 13 14 13 11 9 9 10 8 7 5 3 4 3 4 6 7 8 8 10 12 11 11
14 9 8 11 10 7 9 8 7 7 18 24 25 25 26 25 24 23 24 23 22 23 23 17 16 13 13 12 12 13 12 14 13 12 8 8 6 4 2 2 3 4 6 6 7 7 10 13 12
8 15 10 8 6 5 8 2 6 4 20 24 26 25 25 25 27 23 20 24 24 23 19 18 18 14 13 13 12 11 13 11 13 13 13 11 7 5 2 2 4 7 8 9 7 10 12 14 14
19 12 5 5 5 3 6 1 6 11 20 28 24 25 24 25 24 27 25 25 26 24 26 25 21 13 11 13 13 12 9 8 9 6 3 2 5 4 4 5 8 10 12 14 14 14 13 14 14
6 6 6 7 9 2 6 9 10 11 20 26 26 22 22 21 24 22 19 16 21 22 24 18 17 15 9 9 7 10 7 9 8 8 10 9 9 8 7 7 8 8 7 7 9 10 11 12 12
6 7 8 3 13 4 6 3 11 16 18 21 15 11 10 7 11 13 14 10 18 23 24 12 13 11 6 6 6 10 10 11 11 10 9 9 8 5 7 8 10 9 6 5 6 7 6 11 14
8 7 10 14 12 9 9 1 5 2 16 18 20 23 26 24 19 21 23 18 18 16 14 10 6 5 9 10 14 14 16 9 7 8 9 10 10 9 11 10 10 6 5 7 10 7 10 6 9
5 4 11 9 9 8 15 14 16 17 27 25 25 27 25 24 21 25 25 22 25 21 19 12 5 8 15 8 11 9 7 6 9 11 12 13 13 14 14 14 13 11 9 10 10 6 9 12 15
9 14 7 8 7 5 19 18 13 17 19 25 27 25 24 22 25 25 26 26 23 22 20 19 16 15 13 11 5 3 2 5 8 8 12 15 17 17 15 15 14 13 13 16 15 13 8 5 8
11 11 4 3 2 13 26 13 17 15 18 19 18 19 19 23 24 23 23 22 20 19 15 16 15 15 14 12 8 5 3 2 4 10 11 14 15 13 13 12 12 12 11 11 12 12 12 10 5
3 2 4 4 4 10 3 9 2 14 20 22 20 21 21 22 21 20 20 18 17 13 12 12 11 11 9 9 7 3 2 2 1 4 5 10 12 12 11 11 11 10 9 10 8 8 6 7 9
2 2 2 2 3 1 4 12 9 10 17 18 18 18 19 19 22 18 17 16 11 10 8 6 6 5 5 6 6 4 3 2 3 7 8 9 8 8 12 12 13 14 14 17 17 16 16 11 7
2 2 5 4 3 1 5 8 14 8 14 12 14 16 16 17 16 14 11 10 9 6 5 3 1 1 5 4 6 7 3 3 9 6 7 8 5 6 12 13 13 13 13 15 13 15 15 15 14
9 5 2 2 1 3 4 10 1 5 11 21 19 16 16 16 17 13 9 6 5 3 2 3 2 6 7 6 9 9 11 12 9 7 9 9 10 5 9 13 14 11 9 10 9 10 11 11 13
5 4 5 4 3 2 8 5 1 13 21 19 16 16 15 17 17 13 7 3 10 16 19 17 17 19 20 18 16 12 8 8 4 4 4 6 6 7 9 8 7 7 7 7 7 7 8 9 11
1 6 5 6 1 2 2 5 1 11 13 13 8 14 11 13 12 14 11 20 21 23 21 17 16 13 12 9 4 1 7 7 5 8 0 9 8 6 6 5 4 5 6 5 6 7 8 7 8
6 2 2 5 1 2 1 5 8 10 9 12 11 12 16 18 16 18 17 17 17 13 10 9 7 6 2 1 4 6 6 8 8 5 10 8 6 6 6 4 4 3 4 4 6 8 7 9 11
5 3 6 5 2 2 4 4 5 12 17 19 18 18 19 17 17 16 14 12 10 10 10 8 8 5 4 9 9 9 11 10 5 1 3 3 2 4 2 1 3 3 4 5 5 6 5 4 4
1 4 5 3 1 4 4 4 1 15 20 22 18 17 17 18 14 12 11 9 7 8 13 14 14 14 15 14 14 15 13 10 6 4 3 5 8 2 2 4 5 4 7 6 5 3 5 1 2
Wind_Direction
308 32 91 81 163 350 264 252 123 45 50 48 81 85 98 52 82 132 107 138 129 126 120 121 117 115 116 119 121 118 117 114 106 102 94 88 84 79 76 68 60 54 50 47 45 45 50 49 42
14 133 75 81 159 233 168 102 98 85 94 91 78 84 57 63 48 111 108 136 126 125 126 126 122 118 116 115 117 119 119 114 109 100 94 97 97 93 83 77 69 60 54 49 48 40 40 37 33
324 82 128 160 219 212 173 138 131 148 133 216 99 71 84 116 126 137 131 138 129 127 129 128 122 121 119 119 115 114 112 110 108 107 106 106 103 97 91 80 73 67 61 53 49 41 36 35 25
193 80 38 254 272 268 190 185 117 100 104 113 116 68 66 125 118 132 138 128 126 131 135 131 130 127 118 114 113 117 117 118 112 106 114 113 105 97 88 83 78 72 67 56 46 34 18 16 6
321 87 63 270 290 321 130 134 97 113 104 104 109 118 102 78 119 131 128 126 129 136 130 127 127 121 120 121 123 119 116 113 118 124 125 118 109 106 102 101 99 83 66 46 36 10 2 1 358
92 152 181 286 276 30 334 133 115 100 110 108 104 107 88 137 124 133 131 132 133 132 130 127 127 129 131 131 129 126 125 127 130 136 137 129 123 124 122 124 115 101 68 34 17 355 356 355 346
155 140 190 147 117 154 54 141 102 128 126 84 144 113 124 132 132 131 133 132 129 129 133 136 131 135 134 137 134 135 140 147 146 149 145 138 133 142 149 169 164 196 285 357 333 346 353 348 342
172 171 339 126 183 112 107 80 102 99 112 129 120 145 150 145 145 136 137 135 139 145 140 139 142 144 142 141 145 153 156 150 149 157 143 132 149 162 185 192 218 224 258 287 294 318 331 336 328
186 304 237 210 177 129 191 105 67 112 125 156 235 142 150 140 135 129 133 139 145 151 148 153 149 149 147 154 157 158 163 161 154 154 153 162 195 200 212 225 245 245 251 264 271 278 293 294 307
190 200 252 232 191 157 168 121 130 113 102 87 97 112 133 141 144 146 151 158 164 159 161 162 157 159 158 168 165 169 171 169 162 173 182 194 218 230 242 243 256 261 252 260 270 274 279 283 277
210 190 250 74 177 152 152 127 112 127 124 143 138 144 146 147 152 160 166 166 174 167 167 170 168 172 171 165 170 172 174 175 183 197 207 212 223 243 233 258 267 268 276 269 277 279 272 270 260
239 195 114 94 132 139 147 137 121 183 182 152 153 156 152 161 168 174 178 173 153 167 164 173 177 174 182 170 175 178 174 185 212 219 206 163 157 157 204 244 278 292 303 292 267 271 274 274 260
144 119 89 96 88 111 138 142 127 107 143 153 152 158 165 173 178 185 183 182 159 166 167 165 150 145 146 171 191 189 190 195 200 198 195 173 170 199 213 257 298 309 309 290 283 281 288 300 294
159 120 124 121 117 105 130 114 111 176 140 149 158 170 175 182 187 192 187 188 167 167 151 150 152 156 148 151 152 161 166 185 181 195 190 192 178 188 185 326 353 3 358 344 317 307 309 313 314
137 120 111 171 176 158 129 71 205 168 149 160 172 181 189 193 190 196 195 190 172 168 158 162 155 146 154 150 152 152 162 154 166 172 78 119 105 119 100 43 18 2 358 357 2 356 350 350 343
110 95 171 213 185 207 158 227 225 176 154 170 186 190 198 201 199 203 194 178 162 154 162 168 160 140 150 156 127 142 151 107 112 112 111 92 82 79 66 37 11 349 359 -0 4 359 354 350 347
32 212 214 239 207 169 185 285 200 183 174 185 187 76 58 100 52 41 46 106 148 152 164 154 134 154 163 151 131 92 85 97 103 93 77 92 94 78 44 9 333 331 338 358 1 349 1 343 349
235 239 222 205 208 222 167 299 143 50 88 86 85 82 71 68 60 59 50 66 121 114 103 129 147 137 80 89 98 88 80 76 79 95 86 50 41 26 352 336 343 348 1 2 2 348 345 334 350
249 255 179 146 169 180 111 96 96 97 104 96 91 89 84 68 62 64 61 61 76 74 82 74 109 106 111 81 86 82 99 138 60 62 53 22 12 16 26 24 25 12 14 6 2 327 356 354 350
113 96 53 64 29 90 102 67 75 93 101 109 110 104 101 93 76 71 71 72 76 84 79 76 78 79 87 89 84 56 48 84 94 51 38 39 48 42 46 36 30 30 19 14 10 13 347 319 340
68 109 91 130 3 83 104 65 94 83 90 89 86 102 100 102 99 91 86 86 83 84 94 96 88 77 69 69 69 59 74 44 11 18 39 45 49 47 42 33 27 24 32 21 5 7 11 341 345
91 116 142 128 136 155 191 138 46 117 100 103 109 107 108 106 106 108 104 100 108 124 125 113 113 118 124 130 125 135 127 11 8 58 79 45 41 36 24 25 28 29 24 21 11 14 14 13 354
174 338 33 45 96 62 100 119 165 158 123 125 124 121 123 125 118 121 127 129 123 108 104 127 136 135 150 147 147 149 176 198 64 80 53 26 26 27 35 41 47 46 41 37 31 22 16 15 4
313 324 45 52 46 57 344 129 182 189 148 127 128 136 137 122 120 122 125 119 118 136 149 140 126 321 227 207 194 197 214 119 103 66 33 6 352 14 55 54 54 47 51 51 42 35 25 12 4
36 58 42 66 63 188 350 68 347 159 148 137 135 143 143 142 138 143 140 135 160 206 314 315 281 318 351 2 42 62 92 101 93 40 352 318 337 26 54 64 57 53 57 45 30 19 7 352 344
31 101 143 162 167 279 31 94 62 121 125 143 145 149 147 151 156 158 138 48 56 50 43 42 55 51 63 69 63 61 68 75 46 321 321 316 143 111 102 99 85 52 37 18 16 11 2 354 336
345 68 148 106 59 103 96 70 78 149 139 105 186 194 160 109 94 125 94 74 71 64 60 63 68 75 81 85 75 148 179 196 241 264 327 163 144 142 119 99 76 48 19 0 341 334 332 330 322
86 132 71 33 69 114 126 185 185 181 135 108 88 115 103 101 95 87 80 80 74 62 49 53 67 78 102 259 276 278 272 265 270 219 181 181 148 134 123 82 17 10 331 313 294 302 313 319 322
27 54 72 103 75 166 155 265 265 158 130 119 114 112 111 106 95 90 88 87 80 63 48 42 30 29 333 333 314 298 292 296 274 171 147 191 154 260 117 58 281 308 308 288 294 298 315 332 352
135 108 100 121 224 73 120 209 249 137 134 136 135 122 112 98 91 87 88 83 73 58 56 49 39 31 15 350 323 309 313 307 246 203 158 229 230 238 45 314 286 303 280 288 257 203 142 182 341